星链-34675 (STARLINK-34675)

导读 | 豆包AI

STARLINK-34675是美国SpaceX公司于2025年7月16日发射的星链低轨互联网通信卫星,属于星链星座扩容卫星。星链项目是全球规模最大的低轨卫星互联网星座,该卫星采用标准星链设计,搭载相控阵通信天线,使用霍尔推进器,运行在近地轨道,为全球提供高速低延迟宽带互联网接入服务,助力星链星座实现全球覆盖,服务个人用户及行业客户应用。

基本信息
目录编号:
64809
目录名称:
STARLINK-34675
国际标识:
2025-150V
轨道中心:
EARTH
卫星名称:
星链-34675
卫星全名:
星链-34675 (STARLINK-34675)
卫星状态:
在轨 (已飞行287 天)
发射日期:
2025-07-16 UTC
国别 :
美国 (US)
星等 :
--
轨道信息
数据来源 国际轨道数据 AOE轨道数据
星历时间 2026-04-29T11:16:55+0800
10小时前
查看轨道信息
2026-04-23T21:00:00+0800
6天前
查看轨道信息
半长轴 6950.194km 6950.19km
偏心率 0.0002854 0.0003141
轨道倾角 70.003° 70.001°
近地点辐角 262.996° 276.624°
升交点赤经 7.253° 21.357°
平近点角 97.087° 152.254°
近地点 570.073km 569.869km
远地点 574.041km 574.237km
周期 96.107分钟 96.107分钟
每日圈数 14.983298 14.983311
详细信息
固有亮度:
5
最大亮度:
2.5
卫星平台:
Starlink V1.0
覆盖范围:
全球
运营商:
太空探索技术公司
运营商所在国:
美国
制造商(研发单位):
太空探索技术公司
制造商所在国:
美国
使用方式:
暂无
卫星简介
Starlink 计划是 SpaceX 推出的全球卫星互联网项目,通过发射低轨道卫星,为全球尤其是偏远地区提供高速、低延迟的互联网服务。自 2019 年起,Starlink 已部署数千颗卫星,旨在缩小全球数字鸿沟,推动互联网普及。该项目还为军事、航空等行业提供通信支持,带来广泛经济效益。
2D轨道图
3D轨道图
轨道高度分析图
轨道倾角分析图
轨道综合分析图
查看轨道综合分析图